Regional Weather Roundup
Issued by NWS Goodland, KS

Home | Current Version | Previous Version | Graphics & Text | Print | Product List | Glossary On
Versions: 1 2 3 4 5 6 7 8 9 10 11 12 13 14 15 16 17 18 19 20 21 22 23 24 25 26 27 28 29 30 31 32 33 34 35 36 37 38 39 40 41 42 43 44 45 46 47 48 49 50
000
ASUS43 KGLD 190259
RWRGLD

GOODLAND FORECAST AREA HOURLY WEATHER ROUNDUP
NATIONAL WEATHER SERVICE GOODLAND KS
800 PM MST THU DEC 18 2014

...OFFICIAL OBSERVATIONS...

CITY           SKY/WX    TMP DP  RH WIND       PRES   REMARKS
GOODLAND KS    CLEAR     25  23  92 SW5       30.11S FOG
HILL CITY KS   CLOUDY    32  28  85 S3        30.17S
IMPERIAL NEB   MOCLDY    21  19  92 CALM      30.10R FOG
MCCOOK NEB     CLOUDY    28  26  92 S5        30.13S
AKRON CO       MOCLDY    29  22  75 S6        30.09R
BURLINGTON CO  CLEAR     29  22  75 S3        30.10R
LIMON CO       CLEAR     25  18  74 CALM      30.09R
$$

...UNOFFICIAL OBSERVATIONS...

CITY           SKY/WX    TMP DP  RH WIND       PRES   REMARKS
GOVE KS          N/A     29  32 100 MISG        N/A
SHARON SPRINGS   N/A     29  26  89 CALM        N/A
KIT CARSON CO    N/A     24  22  91 MISG        N/A
YUMA CO          N/A     18  15  88 W5          N/A
$$


USA.gov is the U.S. government's official web portal to all federal, state and local government web resources and services.